Regional Weather Roundup
Issued by NWS Upton, NY

Current Version | Previous Version | Graphics & Text | Print | Product List | Glossary Off
Versions: 1 2 3 4 5 6 7 8 9 10 11 12 13 14 15 16 17 18 19 20 21 22 23 24 25 26 27

000
ASUS41 KOKX 231307
RWROKX

REGIONAL WEATHER ROUNDUP
NATIONAL WEATHER SERVICE NEW YORK NY
900 AM EDT THU MAR 23 2017

NOTE: "FAIR" INDICATES FEW OR NO CLOUDS BELOW 12,000 FEET WITH NO
SIGNIFICANT WEATHER AND/OR OBSTRUCTIONS TO VISIBILITY.

NYZ071-072-176-178-NJZ106-104-231400-
NEW YORK CITY METRO AREA

CITY           SKY/WX    TMP DP  RH WIND       PRES   REMARKS
Central Park   SUNNY     25   5  42 NW8       30.61R WCI  16
Wall St Helipt SUNNY     28  10  47 W9        30.62R WCI  20
LaGuardia APRT SUNNY     29   5  36 NW7       30.60R WCI  22
Kennedy INTL   MOSUNNY   28   3  34 NW13      30.61R WCI  17
Breezy Point     N/A    N/A N/A N/A NW9         N/A
Newark/Liberty SUNNY     28   3  34 NW14      30.61R WCI  17
Teterboro      SUNNY     27   5  39 NW16      30.60R WCI  15
$$

NYZ177-179-078>081-231400-
LONG ISLAND NEW YORK

CITY           SKY/WX    TMP DP  RH WIND       PRES   REMARKS
Jones Beach      N/A    N/A N/A N/A NW12        N/A
Matinecock PT    N/A    N/A N/A N/A NW7G13      N/A
Farmingdale    SUNNY     26   6  42 NW9       30.58R WCI  17
MacArthur/ISP  SUNNY     27   0  31 N17G28    30.56R WCI  14
Shirley        SUNNY     26  -1  31 N16       30.58R WCI  14
Westhampton    SUNNY     26  -2  29 NW15      30.57R WCI  14
East Hampton     N/A     25  -3  29 NW12G23   30.54S WCI  14
Montauk          N/A     25  -1  32 NW13G20   30.56R WCI  14
$$

NYZ052-065-067-231400-
HUDSON VALLEY

CITY           SKY/WX    TMP DP  RH WIND       PRES   REMARKS
White Plains   SUNNY     24   4  42 NW12      30.56R WCI  13
Newburgh       SUNNY     19   7  58 W5        30.57R WCI  13
Montgomery     SUNNY     23   3  42 CALM      30.56R
Poughkeepsie   SUNNY     19   7  59 CALM      30.58R
Albany         SUNNY     20  -1  40 NW10      30.58R WCI   9
$$

NJZ001-105-106-008-010-013-015-019>022-104-231400-
NEW JERSEY

CITY           SKY/WX    TMP DP  RH WIND       PRES   REMARKS
Newark/Liberty SUNNY     28   3  34 NW14      30.61R WCI  17
Teterboro      SUNNY     27   5  39 NW16      30.60R WCI  15
Caldwell       SUNNY     25   3  38 NW7       30.61R WCI  17
Somerville     SUNNY     26   7  44 N14       30.60R WCI  14
Linden           N/A     27   4  36 N10       30.62R WCI  18
Sussex         SUNNY     24   1  36 N5        30.57R WCI  18
Andover          N/A     23   3  42 VRB5      30.58R WCI  17
Trenton        SUNNY     26   9  48 NW7       30.61R WCI  18
Millville      SUNNY    N/A N/A N/A N10       30.63R
Atlantic City  SUNNY     28   7  41 N12       30.62R WCI  18
Wrightstown    SUNNY     27   8  44 NW10      30.59R WCI  17
Toms River     SUNNY     26   9  48 NW9       30.62R WCI  17
Belmar         SUNNY    N/A N/A N/A NW12      30.61R
$$

PAZ047>061-062-071-231400-
EASTERN PENNSYLVANIA

CITY           SKY/WX    TMP DP  RH WIND       PRES   REMARKS
Philadelphia   MOSUNNY   28   6  39 N15G21    30.64R WCI  16
Allentown      SUNNY     26   8  46 N10       30.61R WCI  16
Scranton       SUNNY     20   8  60 NW6       30.57R WCI  12
$$

CTZ002-004>006-009-010-012-RIZ004-006-007-MAZ004-011-015-231400-
SOUTHERN NEW ENGLAND
 IN CT

CITY           SKY/WX    TMP DP  RH WIND       PRES   REMARKS
Bradley INTL   SUNNY     22  -4  32 N7        30.54R WCI  13
Hartford       SUNNY     23  -3  32 N8        30.56R WCI  14
Danbury        SUNNY     23  -5  29 NW15G21   30.56R WCI  10
Wtrbury/Oxford SUNNY     21  -2  35 N10G17    30.52R WCI  10
Bridgeport     SUNNY     27  -3  27 NW9       30.57R WCI  18
Meriden        SUNNY     24  -3  30 NW6       30.56R WCI  17
New Haven      SUNNY     23   0  36 NW8       30.56R WCI  14
Chester          N/A     23  -8  25 N13G20    30.52R WCI  11
Groton         SUNNY     24  -4  29 NW12G26   30.54R WCI  13
Wilimantic     SUNNY     24  -4  29 NW15G23   30.54R WCI  11

 IN RI

CITY           SKY/WX    TMP DP  RH WIND       PRES   REMARKS
Providence     SUNNY     23  -5  29 N14G22    30.51  WCI  11
Block Island   SUNNY     24   1  36 NW12G18   30.53R WCI  13
Westerly       SUNNY     24  -4  29 NW9G17    30.54R WCI  14
 IN MA

CITY           SKY/WX    TMP DP  RH WIND       PRES   REMARKS
Boston         MOSUNNY   22  -4  32 NW14G28   30.49R WCI   9
Worcester      SUNNY     17  -7  34 NW13G22   30.42R WCI   4
Westfield      SUNNY     21  -3  35 CALM      30.52R
Provincetown   SUNNY     23   7  50 NW21G31   30.46R WCI   8
Nantucket      SUNNY     24   1  36 NW22      30.46R WCI   9
$$

ANZ330-335-338-340-345-350-353-355-231400-
COASTAL MARINE OBSERVATIONS


STATION/POSITION TIME  SKY/WX   TEMP    WIND        PRES    VSBY  WAVE
                                AIR SEA DIR/SP/G                  HT/PER
                 (UTC)          (F)     (DEG/KT/KT) (MB)    (MI)  (FT/S)
NY HARB ENTRANCE 1150            27 41  330/ 12/ 16 1035.4          2/ 4
20 S FIRE ISLAND 1150            27 40  330/ 14/ 19 1034.7          3/ 4
GREAT SOUTH BAY  NOT AVBL
23 SSW MONTAUK P 1150            25 42              1034.1          3/ 4
15 E BARNEGAT LI 1230               42                N/A           3/ 5
HUDSON CANYON    1150            30 45  350/ 19/ 25 1033.9          8/ 7
KINGS POINT      1230            24 37              1035.9
EXECUTION ROCKS  NOT AVBL
CENTRAL LI SOUND 1200            25     320/ 12/ 17   N/A           1/ 4
EASTERN LI SOUND NOT AVBL
ROBBINS REEF     1230            25     320/ 11/ 15 1036.4
$$


>>>>>>>>>>>>>>>>>>>>>>>>>>>> KEY <<<<<<<<<<<<<<<<<<<<<<<<<<<
>                                                          <
>     SKY/WX - Sky Condition/Present Weather               <
>     TMP    - Temperature in Fahrenheit                   <
>     DP     - Dew Point in Fahrenheit                     <
>     RH     - Relative Humidity in Percent                <
>     WIND   - Direction (from) and Speed in MPH           <
>     PRES   - Mean Sea Level Pressure (inches of Hg)      <
>     WCI    - Wind Chill Index                            <
>     VSB    - VISIBILITY IN MILES                         <
>     HX     - HEAT INDEX                                  <
>     TC     - TEMPERATURE IN CELSIUS                      <
>     VRB    - VARIABLE WIND DIRECTION                     <
>                                                          <
>>>>>>>>>>>>>>>>>>>>>>>>>>>> KEY <<<<<<<<<<<<<<<<<<<<<<<<<<<




USA.gov is the U.S. government's official web portal to all federal, state and local government web resources and services.